World > North America > United States > New York

Hancock, New York Regional Weather

Lat: 41.95N, Lon: 75.28W
Wx Zone: NYZ057Web Search

Helpful Tip: Abbreviated, 7 Day, 14 Day Forecasts. There is a weather forecast for every taste.

Feedback
Hancock Weather Map
UTC Time: 12/3/2020, 06:53
Your Time:

Hancock, NY Regional Weather

Expires:202012030700;;761424
ASUS41 KALY 030610
RWRALY

NEW YORK STATE HOURLY WEATHER ROUNDUP
NATIONAL WEATHER SERVICE ALBANY NY
100 AM EST THU DEC 03 2020

NOTE: "FAIR" INDICATES FEW OR NO CLOUDS BELOW 12,000 FEET WITH NO
SIGNIFICANT WEATHER AND/OR NO OBSTRUCTIONS TO VISIBILITY.


NYZ032-033-038>043-046>054-057>066-NYZ062>081-082-084-030700-
EAST

  
CITY           SKY/WX    TMP DP  RH WIND       PRES   REMARKS
ALBANY         PTCLDY    28  25  88 CALM      30.06R                  
GLENS FALLS    CLEAR     29  19  66 SW5       30.03R WCI  24          
POUGHKEEPSIE   CLEAR     36  24  62 SW6       30.10R WCI  31          
NEWBURGH       CLEAR     34  25  69 W9        30.10R WCI  26          
MONTGOMERY     CLEAR     33  24  69 W7        30.10R WCI  27          
WHITE PLAINS   CLEAR     34  24  67 W7        30.11R WCI  28          
ISLIP          CLEAR     34  26  72 W7        30.13R WCI  28          
NEW YORK CITY  CLEAR     40  24  53 W12       30.14S WCI  33          
CENTRAL PARK   CLEAR     37  24  59 VRB7      30.16R WCI  32          
$$


SKY/WX - Weather  TMP - Temperature  DP - Dew Point  RH - Relative Humidity
WIND - Wind Direction/Speed PRES - Barometric Pressure VSB - Visibility
WCI - Wind Chill Index E13G22 Wind - East Wind 13 mph/Gusts of 22 mph